DECAYED

STARLINK-1492, 45779 (Decayed)

Orbit data source: Space-Track

STARLINK-1492, 45779 was a payload satellite owned by SpaceX/Seattle (US) in LEO that was launched on Sat, 13 Jun 2020 UTC via an FALCON 9 launch vehicle from the Air Force Eastern Test Range (AFETR). Payload-class satellites include a variety of spacecraft equipped with specific instruments for various scientific and technological missions. These include communications satellites like Starlink; space stations such as the ISS; scientific satellites like the Hubble; Earth observation satellites from companies like Planet Labs, Umbra, and HawkEye 360; GPS; miniature CubeSats for education and research; and military/defense satellites.

Not visible in the next 10 days
Identifier
45779, 2020-038BB
Orbit
Decayed
Country
Flag of USUS
Related business
Manufacturer
SpaceX/Seattle
Mission
Decayed Commercial Communications
Bus & Motor
STARLINK, Unknown motor
Mass
260 kg wet, ~248 kg dry
Launch date (UTC)
2020-06-13 (5 years ago)
Launch vehicle
FALCON 9
Launch site
Air Force Eastern Test Range (AFETR)
Object type
Payload
Rocket body
Debris
Shape & HBR
Box + 1 Pan, 10.1 m
Radar Cross Section
13.562 m², Large (>1 m²)

Expand to show TLE details & history
Last TLE update: 9 months ago

TLE from 9 months ago
0 STARLINK-1492
1 45779U 20038BB  25027.96052733  .08979875  12465-4  40127-3 0  9998
2 45779  52.9848  57.5311 0004766  82.9567 347.1806 16.43238580258950
Epoch: 2025-01-27T23:03Z
TLE epoch observation values (Epoch: 2025-01-27T23:03:09.561Z)
Latitude
48.8243°
Longitude
3.25206°
Altitude
159.652 km
Speed
7.818 km/s
True Right ascension
07h 46m 03s
True Declination
48° 38' 17"
Sunlit
Object was in full shadow at epoch
Visualization orbit readout
Latitude
Unknown
Longitude
Unknown
Altitude
Unknown
Speed
Unknown
Apparent Right ascension
Unknown
Apparent Declination
Unknown
Sunlit
N/A
Visualization observer readout
Local Sidereal Time
23:18:29
Azimuth
Unknown
Elevation
Unknown
Doppler factor
Unknown
Orbital elements
Apogee altitude
160.615 km
Perigee altitude
154.385 km
Semi-major axis
6,535.637 km
Eccentricity
0.00048
Inclination
52.9848°
RAAN
57.5311°
Arg. of periapsis
82.9567°
True anomaly
347.16848°
Mean anomaly
347.1806°
Eccentric anomaly
347.17454°
Mean motion
4.10782 °/min
Orbital period
87.64 mins
BSTAR
0.00040127
Loading maneuver chart data...
Computing Atmospheric mass density...
Loading historical data...
Loading historical data...
Loading historical data...
Loading historical data...
Loading historical data...
Loading historical data...
Loading historical data...

Documentation

Showing up to 5 results
|